EW6304 Weather Reports


Display with metric or nautical units.
time (UTC)temp
F
wind
direction
speed
MPH
gust
MPH
rain 1hr
in
rain 24hr
in
rain mn
in
humidity
%
barometer
mb
20260506195553 62 116 2.0 4.0 0.00 0.00 0.00 86 1007.2
20260506195549 61 116 2.0 9.0 0.01 0.01 0.01 87 1007.0
20260506195207 63 150 2.0 6.0 0.00 0.00 0.00 82 1007.2
20260506194548 62 49 2.0 4.0 0.00 0.00 0.00 85 1007.2
20260506194049 62 49 2.0 6.0 0.00 0.00 0.00 84 1007.2
20260506193047 63 62 2.0 9.0 0.00 0.00 0.00 81 1007.2
20260506192548 63 184 2.0 9.0 0.00 0.00 0.00 79 1007.2
20260506192049 64 168 3.0 10.0 0.00 0.00 0.00 79 1007.2
20260506191549 64 245 3.0 10.0 0.00 0.00 0.00 79 1007.2
20260506191049 64 71 3.0 8.0 0.00 0.00 0.00 78 1007.3
20260506190548 64 51 3.0 10.0 0.00 0.00 0.00 78 1007.3
20260506190049 64 285 3.0 10.0 0.00 0.00 0.00 78 1007.3
20260506185549 64 92 3.0 8.0 0.00 0.00 0.00 77 1007.1
20260506185049 64 107 3.0 12.0 0.00 0.00 0.00 77 1007.0
20260506184548 65 44 3.0 12.0 0.00 0.00 0.00 76 1007.4
20260506184046 65 41 3.0 13.0 0.00 0.00 0.00 76 1007.3
20260506183547 65 65 3.0 13.0 0.00 0.00 0.00 76 1007.5
20260506183046 65 142 3.0 13.0 0.00 0.00 0.00 75 1007.4
20260506182547 66 132 3.0 13.0 0.00 0.00 0.00 75 1007.3
20260506182048 66 197 3.0 11.0 0.00 0.00 0.00 74 1007.4
20260506181547 66 311 3.0 9.0 0.00 0.00 0.00 75 1007.5
20260506181044 66 59 3.0 9.0 0.00 0.00 0.00 74 1007.6
20260506180549 67 91 3.0 12.0 0.00 0.00 0.00 73 1007.9
20260506180544 67 71 3.0 7.0 0.00 0.00 0.00 74 1007.8
20260506175546 67 132 3.0 12.0 0.00 0.00 0.00 73 1007.9
20260506175049 68 84 3.0 13.0 0.00 0.00 0.00 73 1008.1
20260506175044 68 165 3.0 13.0 0.00 0.00 0.00 73 1008.1
20260506174043 68 154 3.0 11.0 0.00 0.00 0.00 72 1008.3
20260506173544 68 46 3.0 12.0 0.00 0.00 0.00 72 1008.3
20260506173044 68 96 3.0 12.0 0.00 0.00 0.00 71 1008.2
20260506172549 70 128 3.0 17.0 0.00 0.00 0.00 69 1008.1
20260506172543 69 179 3.0 17.0 0.00 0.00 0.00 70 1008.1
20260506171543 71 82 3.0 10.0 0.00 0.00 0.00 68 1008.1
20260506171041 70 33 2.0 11.0 0.00 0.00 0.00 72 1008.1
20260506170543 69 157 2.0 11.0 0.00 0.00 0.00 72 1008.2
20260506170047 69 65 3.0 13.0 0.00 0.00 0.00 71 1008.4
20260506170043 68 159 3.0 7.0 0.00 0.00 0.00 71 1008.3
20260506165656 68 100 3.0 13.0 0.00 0.00 0.00 71 1008.5
20260506164541 69 122 3.0 9.0 0.00 0.00 0.00 70 1008.5
20260506164040 69 212 3.0 9.0 0.00 0.00 0.00 70 1008.5
20260506163541 69 279 3.0 9.0 0.00 0.00 0.00 70 1008.5
20260506163040 69 86 2.0 9.0 0.00 0.00 0.00 71 1008.7
20260506162537 69 57 2.0 8.0 0.00 0.00 0.00 70 1008.6
20260506162037 69 231 3.0 7.0 0.00 0.00 0.00 70 1008.7
20260506161538 69 328 3.0 9.0 0.00 0.00 0.00 70 1008.8
20260506161038 69 171 3.0 9.0 0.00 0.00 0.00 69 1009.0
20260506160543 70 159 2.0 9.0 0.00 0.00 0.00 69 1009.0
20260506160538 70 63 2.0 9.0 0.00 0.00 0.00 68 1008.9
20260506155536 70 113 3.0 10.0 0.00 0.00 0.00 69 1009.1
20260506155035 70 329 3.0 10.0 0.00 0.00 0.00 68 1009.2
20260506154541 70 182 2.0 12.0 0.00 0.00 0.00 70 1009.4
20260506154536 70 344 3.0 12.0 0.00 0.00 0.00 69 1009.2
20260506154034 69 92 3.0 10.0 0.00 0.00 0.00 70 1009.4
20260506153652 69 285 4.0 16.0 0.00 0.00 0.00 71 1009.3
20260506152535 68 160 3.0 16.0 0.00 0.00 0.00 71 1009.3
20260506152035 69 67 2.0 10.0 0.00 0.00 0.00 70 1009.6
20260506151534 69 34 2.0 10.0 0.00 0.00 0.00 71 1009.5
20260506151034 68 344 2.0 9.0 0.00 0.00 0.00 70 1009.4
20260506150535 69 178 2.0 9.0 0.00 0.00 0.00 70 1009.4
20260506150035 69 192 2.0 4.0 0.00 0.00 0.00 71 1009.5
20260506145534 68 109 2.0 10.0 0.00 0.00 0.00 71 1009.4
20260506145040 69 149 2.0 10.0 0.00 0.00 0.00 71 1009.1
20260506145036 69 200 2.0 10.0 0.00 0.00 0.00 70 1009.4
20260506144533 69 144 2.0 8.0 0.00 0.00 0.00 70 1009.2
20260506144154 69 117 2.0 10.0 0.00 0.00 0.00 70 1009.3
20260506143040 68 171 3.0 10.0 0.00 0.00 0.00 71 1009.3
20260506143033 69 78 3.0 8.0 0.00 0.00 0.00 72 1009.4
20260506142651 68 166 2.0 10.0 0.00 0.00 0.00 71 1009.1
20260506141539 68 146 2.0 9.0 0.00 0.00 0.00 72 1009.2
20260506141534 69 328 2.0 9.0 0.00 0.00 0.00 72 1009.2
20260506140534 68 41 2.0 9.0 0.00 0.00 0.00 70 1009.2
20260506140035 69 43 3.0 8.0 0.00 0.00 0.00 71 1009.3
20260506135535 68 175 2.0 12.0 0.00 0.00 0.00 72 1009.4
20260506135033 68 190 2.0 12.0 0.00 0.00 0.00 75 1009.5
20260506134537 67 123 2.0 10.0 0.00 0.00 0.00 73 1009.8
20260506134532 67 312 2.0 8.0 0.00 0.00 0.00 73 1009.7
20260506133532 67 57 3.0 10.0 0.00 0.00 0.00 76 1009.9
20260506133032 66 25 3.0 10.0 0.00 0.00 0.00 76 1009.9
20260506132532 66 121 3.0 10.0 0.00 0.00 0.00 76 1010.0
20260506132038 65 190 2.0 8.0 0.00 0.00 0.00 78 1009.8
20260506132033 65 294 2.0 8.0 0.00 0.00 0.00 77 1009.9
20260506131034 64 316 2.0 10.0 0.00 0.00 0.00 80 1009.8
20260506131029 64 58 2.0 10.0 0.00 0.00 0.00 80 1009.9
20260506130647 63 34 2.0 8.0 0.00 0.00 0.00 81 1010.2
20260506130029 63 154 2.0 8.0 0.00 0.00 0.00 82 1010.0
20260506125029 63 108 2.0 5.0 0.00 0.00 0.00 81 1010.0
20260506124534 62 178 3.0 9.0 0.00 0.00 0.00 82 1009.9
20260506124529 63 332 2.0 9.0 0.00 0.00 0.00 82 1009.9
20260506123527 62 78 2.0 8.0 0.00 0.00 0.00 82 1009.8
20260506123030 62 200 2.0 8.0 0.00 0.00 0.00 83 1009.6
20260506122527 62 59 2.0 8.0 0.00 0.00 0.00 83 1009.7
20260506122034 61 191 2.0 7.0 0.00 0.00 0.00 85 1010.2
20260506122028 62 158 2.0 7.0 0.00 0.00 0.00 84 1010.0
20260506121026 61 39 2.0 10.0 0.00 0.00 0.00 84 1010.4
20260506120530 61 209 2.0 9.0 0.00 0.00 0.00 84 1010.3
20260506120525 61 355 2.0 10.0 0.00 0.00 0.00 84 1010.3
20260506115526 61 130 2.0 9.0 0.00 0.00 0.00 85 1010.3
20260506115025 61 105 2.0 9.0 0.00 0.00 0.00 85 1010.3
20260506114531 60 107 2.0 5.0 0.00 0.00 0.00 87 1010.4
20260506114526 61 237 2.0 4.0 0.00 0.00 0.00 86 1010.5
20260506113525 60 155 2.0 7.0 0.00 0.00 0.00 88 1010.5
20260506113026 60 35 2.0 7.0 0.00 0.00 0.00 88 1010.5
20260506112525 59 61 2.0 9.0 0.00 0.00 0.00 88 1010.4
20260506112024 59 154 2.0 9.0 0.00 0.00 0.00 89 1010.5
20260506111523 59 18 2.0 7.0 0.00 0.00 0.00 89 1010.4
20260506111023 59 168 2.0 8.0 0.00 0.00 0.00 89 1010.4
20260506110525 58 92 2.0 12.0 0.00 0.00 0.00 89 1010.3
20260506110024 58 325 2.0 12.0 0.00 0.00 0.00 90 1010.5
20260506105528 58 331 2.0 10.0 0.00 0.00 0.00 90 1010.5
20260506105523 58 331 2.0 7.0 0.00 0.00 0.00 90 1010.4
20260506104524 58 0 2.0 10.0 0.00 0.00 0.00 90 1010.5
20260506104023 58 61 2.0 5.0 0.00 0.00 0.00 91 1010.4
20260506103524 58 130 2.0 5.0 0.00 0.00 0.00 91 1010.4
20260506103022 58 36 2.0 8.0 0.00 0.00 0.00 91 1010.4
20260506102523 58 227 2.0 8.0 0.00 0.00 0.00 91 1010.4
20260506102027 58 12 1.0 5.0 0.00 0.00 0.00 91 1010.2
20260506102022 58 29 2.0 6.0 0.00 0.00 0.00 91 1010.3
20260506101024 57 45 2.0 7.0 0.00 0.00 0.00 91 1010.2
20260506101019 57 101 2.0 7.0 0.00 0.00 0.00 91 1010.3
20260506100020 57 133 2.0 7.0 0.00 0.00 0.00 91 1010.1
20260506095520 57 74 2.0 7.0 0.00 0.00 0.00 91 1010.1
20260506095018 57 9 2.0 5.0 0.00 0.00 0.00 91 1010.1
20260506094518 57 140 1.0 5.0 0.00 0.00 0.00 91 1010.1
20260506094016 57 58 1.0 5.0 0.00 0.00 0.00 91 1010.2
20260506093516 57 324 1.0 5.0 0.00 0.00 0.00 91 1010.2
20260506093016 57 138 1.0 5.0 0.00 0.00 0.00 91 1010.1
20260506092514 57 84 1.0 6.0 0.00 0.00 0.00 90 1010.2
20260506092014 57 162 1.0 6.0 0.00 0.00 0.00 90 1010.1
20260506091518 57 58 2.0 10.0 0.00 0.00 0.00 90 1010.1
20260506091513 57 64 2.0 10.0 0.00 0.00 0.00 90 1010.2
20260506090516 57 280 1.0 6.0 0.00 0.00 0.00 90 1010.2
20260506090512 57 46 2.0 6.0 0.00 0.00 0.00 90 1010.2
20260506090131 57 59 2.0 6.0 0.00 0.00 0.00 90 1010.1
20260506085012 57 56 1.0 6.0 0.00 0.00 0.00 90 1010.2
20260506084512 57 72 1.0 4.0 0.00 0.00 0.00 90 1010.2
20260506084016 57 0 1.0 5.0 0.00 0.00 0.00 89 1010.3
20260506084011 57 10 2.0 5.0 0.00 0.00 0.00 89 1010.4
20260506083009 57 48 1.0 5.0 0.00 0.00 0.00 89 1010.2
20260506082509 57 82 2.0 9.0 0.00 0.00 0.00 89 1010.2
20260506082009 58 114 2.0 9.0 0.00 0.00 0.00 89 1010.3
20260506081510 57 110 2.0 5.0 0.00 0.00 0.00 89 1010.2
20260506081010 57 28 2.0 8.0 0.00 0.00 0.00 89 1010.3
20260506080508 57 84 2.0 8.0 0.00 0.00 0.00 89 1010.3
20260506073508 58 39 2.0 5.0 0.00 0.00 0.00 88 1010.2
20260506073009 58 86 2.0 5.0 0.00 0.00 0.00 88 1010.3
20260506072510 57 274 2.0 5.0 0.00 0.00 0.00 88 1010.2
20260506072009 57 343 2.0 7.0 0.00 0.00 0.00 88 1010.2
20260506071514 58 78 1.0 5.0 0.00 0.00 0.00 87 1010.2
20260506071509 57 44 2.0 7.0 0.00 0.00 0.00 88 1010.1
20260506070509 58 111 1.0 9.0 0.00 0.00 0.00 87 1010.2
20260506062504 58 319 2.0 5.0 0.00 0.00 0.00 86 1010.1
20260506062006 58 86 2.0 6.0 0.00 0.00 0.00 86 1010.2
20260506061011 58 157 1.0 6.0 0.00 0.00 0.00 85 1010.2
20260506061006 58 38 1.0 6.0 0.00 0.00 0.00 86 1010.1
20260506050957 58 190 2.0 9.0 0.00 0.00 0.00 83 1010.4
20260506050456 58 83 2.0 9.0 0.00 0.00 0.00 83 1010.3
20260506044956 58 80 2.0 9.0 0.00 0.00 0.00 83 1010.6
20260506044457 58 339 2.0 9.0 0.00 0.00 0.00 83 1010.6
20260506043957 58 355 2.0 9.0 0.00 0.00 0.00 83 1010.7
20260506043457 58 150 2.0 5.0 0.00 0.00 0.00 82 1010.7
20260506043001 58 194 2.0 6.0 0.00 0.00 0.00 82 1010.6
20260506042957 58 106 2.0 4.0 0.00 0.00 0.00 82 1010.6
20260506041957 58 70 2.0 6.0 0.00 0.00 0.00 81 1010.6
20260506041457 59 142 1.0 5.0 0.00 0.00 0.00 81 1010.6
20260506041003 59 26 2.0 8.0 0.00 0.00 0.00 80 1010.5
20260506040957 59 90 2.0 8.0 0.00 0.00 0.00 81 1010.6
20260506035955 59 67 2.0 8.0 0.00 0.00 0.00 80 1010.5
20260506035454 59 83 2.0 8.0 0.00 0.00 0.00 80 1010.5
20260506034954 59 29 2.0 7.0 0.00 0.00 0.00 80 1010.4
20260506034500 58 34 2.0 8.0 0.00 0.00 0.00 80 1010.3
20260506034455 58 271 2.0 8.0 0.00 0.00 0.00 80 1010.4
20260506033454 58 205 2.0 9.0 0.00 0.00 0.00 79 1010.3
20260506032954 58 15 2.0 9.0 0.00 0.00 0.00 79 1010.4
20260506032501 58 54 2.0 6.0 0.00 0.00 0.00 79 1010.4
20260506032454 58 13 2.0 6.0 0.00 0.00 0.00 79 1010.3
20260506031455 58 142 2.0 5.0 0.00 0.00 0.00 79 1010.4
20260506030957 58 14 2.0 8.0 0.00 0.00 0.00 78 1010.3
20260506030953 58 45 2.0 8.0 0.00 0.00 0.00 78 1010.4
20260506025951 58 61 2.0 7.0 0.00 0.00 0.00 78 1010.3
20260506025452 58 96 2.0 7.0 0.00 0.00 0.00 78 1010.3
20260506024954 58 255 2.0 5.0 0.00 0.00 0.00 78 1010.4
20260506024452 58 32 2.0 5.0 0.00 0.00 0.00 78 1010.4
20260506023954 58 31 2.0 5.0 0.00 0.00 0.00 78 1010.3
20260506023458 58 273 2.0 6.0 0.00 0.00 0.00 78 1010.3
20260506023452 58 244 2.0 6.0 0.00 0.00 0.00 78 1010.3
20260506022452 58 189 2.0 6.0 0.00 0.00 0.00 78 1010.2
20260506021951 58 69 2.0 6.0 0.00 0.00 0.00 78 1010.2
20260506021452 58 171 2.0 5.0 0.00 0.00 0.00 78 1010.1
20260506020951 58 161 1.0 4.0 0.00 0.00 0.00 78 1010.3
20260506020447 58 32 1.0 10.0 0.00 0.00 0.00 78 1010.3
20260506015948 58 46 1.0 10.0 0.00 0.00 0.00 79 1010.3
20260506015447 58 5 1.0 3.0 0.00 0.00 0.00 78 1010.4
20260506014951 59 187 1.0 4.0 0.00 0.00 0.00 78 1010.4
20260506014945 59 5 1.0 4.0 0.00 0.00 0.00 78 1010.4
20260506013947 59 80 1.0 5.0 0.00 0.00 0.00 78 1010.2
20260506013451 59 151 1.0 8.0 0.00 0.00 0.00 78 1010.1
20260506013447 59 257 1.0 5.0 0.00 0.00 0.00 78 1010.1
20260506013103 59 5 1.0 8.0 0.00 0.00 0.00 78 1009.9
20260506011945 59 97 2.0 6.0 0.00 0.00 0.00 78 1009.9
20260506011451 59 5 2.0 6.0 0.00 0.00 0.00 78 1009.9
20260506011447 59 97 2.0 6.0 0.00 0.00 0.00 78 1009.9
20260506011101 59 59 2.0 7.0 0.00 0.00 0.00 78 1009.8
20260506005947 59 59 2.0 9.0 0.00 0.00 0.00 77 1009.8
20260506005445 59 83 1.0 9.0 0.00 0.00 0.00 78 1009.7
20260506004945 59 319 2.0 6.0 0.00 0.00 0.00 77 1009.7
20260506004445 59 57 2.0 6.0 0.00 0.00 0.00 77 1009.6
20260506003945 59 68 2.0 6.0 0.00 0.00 0.00 77 1009.6
20260506003448 59 177 2.0 6.0 0.00 0.00 0.00 77 1009.5
20260506002947 59 80 1.0 10.0 0.00 0.00 0.00 77 1009.4
20260506002446 59 65 1.0 11.0 0.00 0.00 0.00 76 1009.3
20260506001945 59 303 1.0 11.0 0.00 0.00 0.00 76 1009.3
20260506001446 59 54 2.0 9.0 0.00 0.00 0.00 76 1009.2
20260506000947 60 53 2.0 9.0 0.00 0.00 0.00 76 1009.0
20260506000446 60 59 2.0 6.0 0.00 0.00 0.00 75 1008.8
20260505235947 60 203 2.0 6.0 0.00 0.00 0.00 75 1008.7
20260505235446 60 70 2.0 6.0 0.00 0.00 0.00 74 1008.7
20260505234945 60 64 2.0 5.0 0.00 0.00 0.00 74 1008.9
20260505234444 61 309 2.0 6.0 0.00 0.00 0.00 73 1008.8
20260505233944 61 65 2.0 6.0 0.00 0.00 0.00 73 1008.8
20260505233444 61 53 2.0 8.0 0.00 0.00 0.00 72 1008.7
20260505232943 62 132 2.0 9.0 0.00 0.00 0.00 72 1008.7
20260505232448 62 202 3.0 8.0 0.00 0.00 0.00 71 1008.5
20260505232444 62 196 2.0 9.0 0.00 0.00 0.00 72 1008.6
20260505232104 63 313 2.0 10.0 0.00 0.00 0.00 70 1008.2
20260505231445 62 257 2.0 10.0 0.00 0.00 0.00 71 1008.6
20260505231107 63 9 3.0 14.0 0.00 0.00 0.00 69 1007.7
20260505231102 63 0 2.0 14.0 0.00 0.00 0.00 70 1008.0
20260505230101 64 44 3.0 10.0 0.00 0.00 0.00 68 1007.7
20260505224943 64 340 2.0 6.0 0.00 0.00 0.00 68 1007.7
20260505224445 65 115 2.0 5.0 0.00 0.00 0.00 67 1007.8
20260505223942 65 115 2.0 5.0 0.00 0.00 0.00 67 1007.8
20260505223441 66 118 2.0 8.0 0.00 0.00 0.00 66 1007.9
20260505222942 66 105 2.0 10.0 0.00 0.00 0.00 64 1008.0
20260505222441 67 214 2.0 10.0 0.00 0.00 0.00 63 1007.7
20260505221945 68 9 2.0 6.0 0.00 0.00 0.00 61 1007.7
20260505221940 67 12 2.0 9.0 0.00 0.00 0.00 62 1007.7
20260505220940 68 40 2.0 6.0 0.00 0.00 0.00 61 1007.7
20260505220439 68 57 3.0 9.0 0.00 0.00 0.00 60 1007.5
20260505215939 69 175 3.0 9.0 0.00 0.00 0.00 60 1007.4
20260505215445 70 219 2.0 7.0 0.00 0.00 0.00 58 1007.3
20260505215438 69 49 3.0 8.0 0.00 0.00 0.00 59 1007.4
20260505215056 70 39 2.0 8.0 0.00 0.00 0.00 59 1007.2
20260505214555 70 165 2.0 8.0 0.00 0.00 0.00 58 1007.3
20260505213437 70 336 3.0 10.0 0.00 0.00 0.00 59 1007.2
20260505212938 70 78 3.0 10.0 0.00 0.00 0.00 58 1007.4
20260505212437 70 80 3.0 11.0 0.00 0.00 0.00 59 1007.3
20260505211937 70 311 3.0 11.0 0.00 0.00 0.00 59 1007.3
20260505211442 70 145 2.0 6.0 0.00 0.00 0.00 59 1007.3
20260505211436 70 40 3.0 12.0 0.00 0.00 0.00 60 1007.4
20260505211052 70 196 3.0 17.0 0.00 0.00 0.00 59 1007.2
20260505210556 70 222 3.0 17.0 0.00 0.00 0.00 59 1007.2
20260505205435 70 205 3.0 12.0 0.00 0.00 0.00 59 1007.2
20260505204936 71 145 3.0 11.0 0.00 0.00 0.00 58 1007.3
20260505204441 71 231 3.0 13.0 0.00 0.00 0.00 56 1007.4
20260505204436 71 342 3.0 13.0 0.00 0.00 0.00 58 1007.4
20260505203435 72 168 3.0 13.0 0.00 0.00 0.00 55 1007.3
20260505202936 72 16 3.0 9.0 0.00 0.00 0.00 56 1007.3
20260505202436 73 203 3.0 9.0 0.00 0.00 0.00 56 1007.5
20260505201933 73 184 2.0 6.0 0.00 0.00 0.00 54 1007.4
20260505201433 73 63 2.0 6.0 0.00 0.00 0.00 55 1007.3
20260505200932 73 49 2.0 8.0 0.00 0.00 0.00 54 1007.3
20260505200434 73 139 2.0 10.0 0.00 0.00 0.00 55 1007.2
20260505195934 73 123 3.0 10.0 0.00 0.00 0.00 55 1007.4